This demonstration page uses our WeatherBlox Daily Observations layout. Learn more.

Hourly Observations for January 16, 2019

Temp ( °F °C ) Dew Point ( °F °C ) Humidity (%) Winds ( mph kmh ) Pressure ( in mb ) Visibility ( mi km ) Precip ( " mm )
12:15 am 00:15 Clear 23 -5 23 -5 100 100 SW 5 7 30.18 1022 10 16.09344 0 0
12:35 am 00:35 Clear 19 -7 19 -7 100 100 W 3 6 30.18 1022 10 16.09344 0 0
12:55 am 00:55 Clear 21 -6 21 -6 100 100 WSW 3 6 30.18 1022 10 16.09344 0 0
1:15 am 01:15 Clear 21 -6 21 -6 100 100 SW 3 6 30.18 1022 10 16.09344 0 0
1:35 am 01:35 Clear 21 -6 21 -6 100 100 SW 3 6 30.18 1022 10 16.09344 0 0
1:55 am 01:55 Clear 18 -8 18 -8 100 100 WSW 3 6 30.18 1022 10 16.09344 0 0
2:15 am 02:15 Clear 18 -8 18 -8 100 100 W 3 6 30.21 1023 10 16.09344 0 0
2:35 am 02:35 Clear 18 -8 18 -8 100 100 W 3 6 30.21 1023 10 16.09344 0 0
2:55 am 02:55 Clear 19 -7 19 -7 100 100 WSW 3 6 30.15 1021 10 16.09344 0 0
3:15 am 03:15 Clear 18 -8 18 -8 100 100 Calm 30.18 1022 10 16.09344 0 0
3:35 am 03:35 Clear 18 -8 18 -8 100 100 W 3 6 30.18 1022 10 16.09344 0 0
3:55 am 03:55 Clear 18 -8 18 -8 100 100 WSW 3 6 30.18 1022 10 16.09344 0 0
4:15 am 04:15 Clear 18 -8 18 -8 100 100 WSW 5 7 30.18 1022 10 16.09344 0 0
4:35 am 04:35 Clear 14 -10 14 -10 100 100 WSW 6 9 30.18 1022 10 16.09344 0 0
4:55 am 04:55 Clear 23 -5 23 -5 100 100 WSW 6 9 30.12 1020 10 16.09344 0 0
5:15 am 05:15 Clear 16 -9 16 -9 100 100 W 5 7 30.18 1022 10 16.09344 0 0
5:35 am 05:35 Clear 18 -8 18 -8 100 100 WSW 5 7 30.18 1022 10 16.09344 0 0
5:55 am 05:55 Clear 19 -7 19 -7 100 100 W 3 6 30.15 1021 10 16.09344 0 0
6:15 am 06:15 Clear 18 -8 18 -8 100 100 WNW 3 6 30.18 1022 7 11.265408 0 0
6:35 am 06:35 Clear 19 -7 19 -7 100 100 Calm 30.15 1021 7 11.265408 0 0
6:55 am 06:55 Clear 19 -7 19 -7 100 100 Calm 30.15 1021 7 11.265408 0 0
7:15 am 07:15 Partly Cloudy 18 -8 18 -8 100 100 WSW 3 6 30.18 1022 10 16.09344 0 0
7:35 am 07:35 Mostly Cloudy 18 -8 18 -8 100 100 SW 5 7 30.18 1022 10 16.09344 0 0
7:55 am 07:55 Cloudy 25 -4 23 -5 93 93 Calm 30.18 1022 10 16.09344 0 0
8:15 am 08:15 Cloudy 25 -4 23 -5 93 93 Calm 30.15 1021 10 16.09344 0 0
8:35 am 08:35 Cloudy 25 -4 25 -4 100 100 Calm 30.18 1022 10 16.09344 0 0
8:55 am 08:55 Cloudy 27 -3 25 -4 93 93 WSW 3 6 30.18 1022 10 16.09344 0 0
9:15 am 09:15 Cloudy 27 -3 27 -3 100 100 Calm 30.18 1022 10 16.09344 0 0
9:35 am 09:35 Cloudy 30 -1 28 -2 93 93 SW 3 6 30.21 1023 10 16.09344 0 0
9:55 am 09:55 Cloudy 30 -1 28 -2 93 93 Calm 30.21 1023 10 16.09344 0 0
10:15 am 10:15 Cloudy 32 0 30 -1 93 93 Calm 30.21 1023 10 16.09344 0 0
10:35 am 10:35 Cloudy 36 2 30 -1 81 81 W 5 7 30.21 1023 10 16.09344 0 0
10:55 am 10:55 Cloudy 34 1 30 -1 87 87 SW 3 6 30.21 1023 10 16.09344 0 0
11:15 am 11:15 Cloudy 36 2 32 0 87 87 Calm 30.21 1023 10 16.09344 0 0
11:35 am 11:35 Cloudy 36 2 32 0 87 87 S 3 6 30.21 1023 10 16.09344 0 0
11:55 am 11:55 Cloudy 37 3 32 0 81 81 W 6 9 30.18 1022 10 16.09344 0.01 0.254
12:15 pm 12:15 Cloudy 39 4 32 0 75 75 NW 8 13 30.18 1022 10 16.09344 0 0
12:35 pm 12:35 Cloudy 39 4 32 0 75 75 NW 12 19 30.18 1022 10 16.09344 0.02 0.508
12:55 pm 12:55 Cloudy 39 4 30 -1 70 70 NW 13 20 30.18 1022 10 16.09344 0.03 0.762
1:15 pm 13:15 Cloudy 41 5 30 -1 66 66 NW 10 17 30.18 1022 10 16.09344 0.01 0.254
1:35 pm 13:35 Cloudy 41 5 32 0 70 70 NW 10 17 30.18 1022 10 16.09344 0.03 0.762
1:55 pm 13:55 Cloudy 41 5 32 0 70 70 NW 12 19 30.18 1022 10 16.09344 0.05 1.27
2:15 pm 14:15 Cloudy 41 5 30 -1 66 66 NW 13 20 30.18 1022 10 16.09344 0.01 0.254
2:35 pm 14:35 Cloudy 41 5 32 0 70 70 WNW 10 17 30.18 1022 10 16.09344 0.03 0.762
2:55 pm 14:55 Cloudy 39 4 32 0 75 75 NW 15 24 30.18 1022 10 16.09344 0.04 1.016
3:15 pm 15:15 Mostly Cloudy 41 5 32 0 70 70 NW 16 26 30.18 1022 10 16.09344 0.01 0.254
3:35 pm 15:35 Mostly Cloudy 39 4 32 0 75 75 NW 24 39 30.18 1022 10 16.09344 0.02 0.508
3:55 pm 15:55 Cloudy 39 4 32 0 75 75 NW 20 31 30.21 1023 10 16.09344 0.03 0.762
4:15 pm 16:15 Cloudy 39 4 32 0 75 75 WNW 22 35 30.21 1023 10 16.09344 0.01 0.254
4:35 pm 16:35 Cloudy 39 4 32 0 75 75 WNW 21 33 30.21 1023 10 16.09344 0.02 0.508
4:55 pm 16:55 Cloudy 39 4 32 0 75 75 NW 20 31 30.21 1023 10 16.09344 0.02 0.508
5:15 pm 17:15 Cloudy 39 4 32 0 75 75 NW 16 26 30.24 1024 10 16.09344 0 0
5:35 pm 17:35 Cloudy 39 4 32 0 75 75 WNW 18 30 30.24 1024 10 16.09344 0.01 0.254
5:55 pm 17:55 Cloudy 39 4 32 0 75 75 NW 16 26 30.24 1024 10 16.09344 0.01 0.254
6:15 pm 18:15 Cloudy 39 4 32 0 75 75 WNW 14 22 30.24 1024 10 16.09344 0.01 0.254
6:35 pm 18:35 Cloudy 39 4 32 0 75 75 NW 7 11 30.27 1025 10 16.09344 0.02 0.508
6:55 pm 18:55 Cloudy 39 4 30 -1 70 70 WNW 7 11 30.27 1025 10 16.09344 0.02 0.508
7:15 pm 19:15 Cloudy 39 4 32 0 75 75 WNW 8 13 30.27 1025 10 16.09344 0 0
7:35 pm 19:35 Cloudy 37 3 32 0 81 81 NW 10 17 30.27 1025 10 16.09344 0.01 0.254
7:55 pm 19:55 Cloudy 39 4 32 0 75 75 NNW 8 13 30.3 1026 10 16.09344 0.01 0.254
8:15 pm 20:15 Cloudy 37 3 32 0 81 81 NNW 8 13 30.3 1026 10 16.09344 0 0
8:35 pm 20:35 Cloudy 37 3 30 -1 75 75 NNW 10 17 30.3 1026 10 16.09344 0.01 0.254
8:55 pm 20:55 Cloudy 37 3 30 -1 75 75 N 7 11 30.3 1026 10 16.09344 0.01 0.254
9:15 pm 21:15 Cloudy 37 3 30 -1 75 75 N 8 13 30.3 1026 10 16.09344 0 0
9:35 pm 21:35 Cloudy 37 3 30 -1 75 75 N 5 7 30.3 1026 10 16.09344 0 0
9:55 pm 21:55 Cloudy 37 3 30 -1 75 75 N 3 6 30.33 1027 10 16.09344 0 0
10:10 pm 22:10 Cloudy 37 3 28 -2 70 70 N 5 7 30.33 1027 10 16.09344 0 0
10:35 pm 22:35 Cloudy 37 3 28 -2 70 70 NNW 6 9 30.33 1027 10 16.09344 0 0
10:55 pm 22:55 Cloudy 37 3 30 -1 75 75 NW 3 6 30.33 1027 10 16.09344 0 0
11:15 pm 23:15 Cloudy 37 3 30 -1 75 75 NW 6 9 30.36 1028 10 16.09344 0 0
11:35 pm 23:35 Cloudy 37 3 28 -2 70 70 NW 8 13 30.36 1028 10 16.09344 0 0
11:55 pm 23:55 Cloudy 36 2 28 -2 75 75 NW 8 13 30.33 1027 10 16.09344 0 0

Powered by AerisWeather